Time,TemperatureF,DewpointF,PressureIn,WindDirection,WindDirectionDegrees,WindSpeedMPH,WindSpeedGustMPH,Humidity,HourlyPrecipIn,Conditions,Clouds,dailyrainin,SoftwareType,DateUTC
2013-07-30 00:02:00,59.0,56.0,29.99,WNW,296,0.0,0.0,89,0.00,,,0.00,,2013-07-30 07:02:00,
2013-07-30 00:13:00,59.0,56.0,29.99,WNW,295,0.0,0.0,90,0.00,,,0.00,,2013-07-30 07:13:00,
2013-07-30 00:22:00,58.0,55.0,30.00,WNW,295,0.0,0.0,90,0.00,,,0.00,,2013-07-30 07:22:00,
2013-07-30 00:33:00,58.0,55.0,30.00,WNW,295,0.0,0.0,91,0.00,,,0.00,,2013-07-30 07:33:00,
2013-07-30 00:43:00,58.0,55.0,30.00,WNW,295,0.0,0.0,91,0.00,,,0.00,,2013-07-30 07:43:00,
2013-07-30 00:53:00,57.0,55.0,30.00,WNW,295,0.0,0.0,92,0.00,,,0.00,,2013-07-30 07:53:00,
2013-07-30 01:02:00,57.0,55.0,30.01,WNW,295,0.0,0.0,93,0.00,,,0.00,,2013-07-30 08:02:00,
2013-07-30 01:12:00,57.0,55.0,30.01,WNW,295,0.0,0.0,93,0.00,,,0.00,,2013-07-30 08:12:00,
2013-07-30 01:22:00,57.0,55.0,30.01,WNW,295,0.0,0.0,94,0.00,,,0.00,,2013-07-30 08:22:00,
2013-07-30 01:32:00,57.0,55.0,30.01,WNW,295,0.0,0.0,94,0.00,,,0.00,,2013-07-30 08:32:00,
2013-07-30 01:42:00,57.0,55.0,30.02,WNW,296,0.0,0.0,94,0.00,,,0.00,,2013-07-30 08:42:00,
2013-07-30 01:53:00,58.0,56.0,30.01,WNW,295,0.0,0.0,92,0.00,,,0.00,,2013-07-30 08:53:00,
2013-07-30 02:02:00,58.0,55.0,30.02,WNW,295,0.0,1.0,91,0.00,,,0.00,,2013-07-30 09:02:00,
2013-07-30 02:12:00,58.0,55.0,30.02,WNW,295,0.0,1.0,91,0.00,,,0.00,,2013-07-30 09:12:00,
2013-07-30 02:32:00,58.0,55.0,30.02,WNW,295,0.0,1.0,90,0.00,,,0.00,,2013-07-30 09:32:00,
2013-07-30 02:43:00,57.0,55.0,30.02,WNW,295,0.0,0.0,92,0.00,,,0.00,,2013-07-30 09:43:00,
2013-07-30 02:53:00,57.0,55.0,30.03,WNW,295,0.0,0.0,93,0.00,,,0.00,,2013-07-30 09:53:00,
2013-07-30 03:02:00,57.0,55.0,30.03,WNW,295,0.0,0.0,93,0.00,,,0.00,,2013-07-30 10:02:00,
2013-07-30 03:12:00,57.0,55.0,30.03,WNW,295,0.0,0.0,93,0.00,,,0.00,,2013-07-30 10:12:00,
2013-07-30 03:32:00,57.0,55.0,30.03,WNW,295,0.0,0.0,93,0.00,,,0.00,,2013-07-30 10:32:00,
2013-07-30 03:43:00,57.0,55.0,30.04,WNW,295,0.0,1.0,94,0.00,,,0.00,,2013-07-30 10:43:00,
2013-07-30 03:52:00,56.0,54.0,30.04,WNW,295,0.0,0.0,94,0.00,,,0.00,,2013-07-30 10:52:00,
2013-07-30 04:02:00,56.0,54.0,30.04,WNW,295,0.0,0.0,94,0.00,,,0.00,,2013-07-30 11:02:00,
2013-07-30 04:11:00,56.0,54.0,30.04,WNW,295,0.0,1.0,94,0.00,,,0.00,,2013-07-30 11:11:00,
2013-07-30 04:22:00,56.0,54.0,30.05,WNW,295,0.0,0.0,93,0.00,,,0.00,,2013-07-30 11:22:00,
2013-07-30 04:33:00,56.0,54.0,30.05,WNW,296,0.0,0.0,93,0.00,,,0.00,,2013-07-30 11:33:00,
2013-07-30 04:43:00,56.0,54.0,30.05,WNW,296,0.0,0.0,93,0.00,,,0.00,,2013-07-30 11:43:00,
2013-07-30 04:53:00,56.0,54.0,30.05,WNW,295,0.0,1.0,93,0.00,,,0.00,,2013-07-30 11:53:00,
2013-07-30 05:11:00,55.0,53.0,30.06,WNW,295,0.0,1.0,94,0.00,,,0.00,,2013-07-30 12:11:00,
2013-07-30 05:22:00,55.0,53.0,30.06,SW,221,1.0,6.0,94,0.00,,,0.00,,2013-07-30 12:22:00,
2013-07-30 05:33:00,55.0,53.0,30.06,SW,221,0.0,3.0,94,0.00,,,0.00,,2013-07-30 12:33:00,
2013-07-30 05:42:00,55.0,53.0,30.06,SW,221,0.0,3.0,94,0.00,,,0.00,,2013-07-30 12:42:00,
2013-07-30 05:53:00,55.0,54.0,30.06,SW,223,0.0,1.0,95,0.00,,,0.00,,2013-07-30 12:53:00,
2013-07-30 06:22:00,54.0,53.0,30.08,SSW,192,0.0,2.0,96,0.00,,,0.00,,2013-07-30 13:22:00,
2013-07-30 06:42:00,54.0,53.0,30.08,SSW,193,0.0,1.0,96,0.00,,,0.00,,2013-07-30 13:42:00,
2013-07-30 07:02:00,54.0,53.0,30.09,SSW,193,0.0,0.0,96,0.00,,,0.00,,2013-07-30 14:02:00,
2013-07-30 07:11:00,54.0,53.0,30.09,SSW,199,0.0,3.0,97,0.00,,,0.00,,2013-07-30 14:11:00,
2013-07-30 07:32:00,54.0,53.0,30.09,SSW,200,0.0,0.0,96,0.00,,,0.00,,2013-07-30 14:32:00,
2013-07-30 07:43:00,55.0,54.0,30.10,SW,222,2.0,4.0,96,0.00,,,0.00,,2013-07-30 14:43:00,
2013-07-30 07:53:00,55.0,54.0,30.10,SSW,193,1.0,3.0,95,0.00,,,0.00,,2013-07-30 14:53:00,
2013-07-30 08:01:00,55.0,54.0,30.10,SSW,193,1.0,3.0,95,0.00,,,0.00,,2013-07-30 15:01:00,
2013-07-30 08:22:00,56.0,55.0,30.11,SSW,192,0.0,4.0,95,0.00,,,0.00,,2013-07-30 15:22:00,
2013-07-30 08:33:00,56.0,55.0,30.11,SSW,192,0.0,4.0,95,0.00,,,0.00,,2013-07-30 15:33:00,
2013-07-30 08:43:00,56.0,54.0,30.12,SSW,210,0.0,1.0,94,0.00,,,0.00,,2013-07-30 15:43:00,
2013-07-30 08:53:00,56.0,54.0,30.12,SW,215,0.0,4.0,93,0.00,,,0.00,,2013-07-30 15:53:00,
2013-07-30 09:02:00,56.0,54.0,30.12,SW,215,0.0,4.0,93,0.00,,,0.00,,2013-07-30 16:02:00,
2013-07-30 09:12:00,57.0,55.0,30.12,SSW,211,2.0,5.0,92,0.00,,,0.00,,2013-07-30 16:12:00,
2013-07-30 09:33:00,57.0,55.0,30.12,South,188,1.0,4.0,92,0.00,,,0.00,,2013-07-30 16:33:00,
2013-07-30 09:43:00,58.0,55.0,30.13,SW,219,2.0,5.0,91,0.00,,,0.00,,2013-07-30 16:43:00,
2013-07-30 10:02:00,58.0,55.0,30.13,West,260,0.0,4.0,91,0.00,,,0.00,,2013-07-30 17:02:00,
2013-07-30 10:22:00,60.0,56.0,30.12,SSW,203,1.0,4.0,87,0.00,,,0.00,,2013-07-30 17:22:00,
2013-07-30 10:32:00,60.0,56.0,30.12,SSW,203,1.0,4.0,87,0.00,,,0.00,,2013-07-30 17:32:00,
2013-07-30 10:43:00,60.0,56.0,30.12,SW,216,0.0,2.0,87,0.00,,,0.00,,2013-07-30 17:43:00,
2013-07-30 10:53:00,61.0,56.0,30.12,WSW,257,0.0,6.0,85,0.00,,,0.00,,2013-07-30 17:53:00,
2013-07-30 11:12:00,62.0,57.0,30.12,West,263,3.0,6.0,83,0.00,,,0.00,,2013-07-30 18:12:00,
2013-07-30 11:22:00,62.0,57.0,30.12,SW,221,3.0,8.0,83,0.00,,,0.00,,2013-07-30 18:22:00,
2013-07-30 11:42:00,63.0,57.0,30.12,SSW,196,3.0,7.0,82,0.00,,,0.00,,2013-07-30 18:42:00,
2013-07-30 11:52:00,63.0,57.0,30.12,WSW,254,2.0,7.0,81,0.00,,,0.00,,2013-07-30 18:52:00,
2013-07-30 12:11:00,64.0,58.0,30.12,West,264,2.0,8.0,80,0.00,,,0.00,,2013-07-30 19:11:00,
2013-07-30 12:22:00,64.0,58.0,30.12,WSW,237,2.0,7.0,80,0.00,,,0.00,,2013-07-30 19:22:00,
2013-07-30 12:33:00,64.0,58.0,30.12,WSW,237,2.0,7.0,80,0.00,,,0.00,,2013-07-30 19:33:00,
2013-07-30 12:43:00,65.0,58.0,30.11,WSW,249,3.0,9.0,79,0.00,,,0.00,,2013-07-30 19:43:00,
2013-07-30 12:52:00,65.0,58.0,30.11,WNW,297,4.0,8.0,78,0.00,,,0.00,,2013-07-30 19:52:00,
2013-07-30 13:01:00,65.0,58.0,30.11,WNW,297,4.0,8.0,78,0.00,,,0.00,,2013-07-30 20:01:00,
2013-07-30 13:12:00,66.0,59.0,30.11,WSW,241,2.0,8.0,77,0.00,,,0.00,,2013-07-30 20:12:00,
2013-07-30 13:22:00,66.0,58.0,30.11,West,279,3.0,8.0,76,0.00,,,0.00,,2013-07-30 20:22:00,
2013-07-30 13:32:00,66.0,58.0,30.11,West,279,3.0,8.0,76,0.00,,,0.00,,2013-07-30 20:32:00,
2013-07-30 13:43:00,67.0,59.0,30.11,West,264,3.0,10.0,75,0.00,,,0.00,,2013-07-30 20:43:00,
2013-07-30 14:02:00,68.0,59.0,30.12,SSW,205,3.0,8.0,74,0.00,,,0.00,,2013-07-30 21:02:00,
2013-07-30 14:11:00,68.0,59.0,30.12,WNW,283,4.0,8.0,73,0.00,,,0.00,,2013-07-30 21:11:00,
2013-07-30 14:22:00,69.0,60.0,30.11,West,265,3.0,7.0,73,0.00,,,0.00,,2013-07-30 21:22:00,
2013-07-30 14:42:00,70.0,60.0,30.11,SSW,193,4.0,7.0,70,0.00,,,0.00,,2013-07-30 21:42:00,
2013-07-30 14:53:00,71.0,60.0,30.11,SSW,211,3.0,7.0,69,0.00,,,0.00,,2013-07-30 21:53:00,
2013-07-30 15:01:00,71.0,60.0,30.11,SSW,211,3.0,7.0,69,0.00,,,0.00,,2013-07-30 22:01:00,
2013-07-30 15:11:00,71.0,60.0,30.10,West,263,0.0,6.0,69,0.00,,,0.00,,2013-07-30 22:11:00,
2013-07-30 15:22:00,72.0,60.0,30.10,WNW,300,3.0,7.0,67,0.00,,,0.00,,2013-07-30 22:22:00,
2013-07-30 15:32:00,72.0,60.0,30.10,SSW,207,2.0,7.0,66,0.00,,,0.00,,2013-07-30 22:32:00,
2013-07-30 15:43:00,72.0,60.0,30.10,SSW,207,2.0,7.0,66,0.00,,,0.00,,2013-07-30 22:43:00,
2013-07-30 15:52:00,72.0,60.0,30.09,WNW,294,3.0,7.0,65,0.00,,,0.00,,2013-07-30 22:52:00,
2013-07-30 16:12:00,73.0,60.0,30.09,NW,307,3.0,7.0,64,0.00,,,0.00,,2013-07-30 23:12:00,
2013-07-30 16:22:00,73.0,60.0,30.09,SSW,208,2.0,7.0,63,0.00,,,0.00,,2013-07-30 23:22:00,
2013-07-30 16:42:00,73.0,59.0,30.09,West,260,3.0,7.0,62,0.00,,,0.00,,2013-07-30 23:42:00,
2013-07-30 16:53:00,74.0,60.0,30.08,SW,216,3.0,6.0,61,0.00,,,0.00,,2013-07-30 23:53:00,
2013-07-30 17:01:00,74.0,60.0,30.08,SW,216,3.0,6.0,61,0.00,,,0.00,,2013-07-31 00:01:00,
2013-07-30 17:11:00,74.0,60.0,30.09,SW,227,1.0,7.0,61,0.00,,,0.00,,2013-07-31 00:11:00,
2013-07-30 17:22:00,75.0,60.0,30.08,South,190,3.0,6.0,59,0.00,,,0.00,,2013-07-31 00:22:00,
2013-07-30 17:32:00,75.0,61.0,30.08,SSW,199,1.0,7.0,61,0.00,,,0.00,,2013-07-31 00:32:00,
2013-07-30 17:43:00,75.0,61.0,30.08,SSW,199,1.0,7.0,61,0.00,,,0.00,,2013-07-31 00:43:00,
2013-07-30 17:53:00,75.0,60.0,30.07,WSW,240,2.0,6.0,60,0.00,,,0.00,,2013-07-31 00:53:00,
2013-07-30 18:11:00,75.0,60.0,30.08,WNW,296,1.0,6.0,60,0.00,,,0.00,,2013-07-31 01:11:00,
2013-07-30 18:32:00,75.0,60.0,30.07,West,267,3.0,6.0,59,0.00,,,0.00,,2013-07-31 01:32:00,
2013-07-30 18:42:00,75.0,60.0,30.07,WSW,257,2.0,5.0,60,0.00,,,0.00,,2013-07-31 01:42:00,
2013-07-30 18:52:00,75.0,60.0,30.07,WSW,257,2.0,5.0,60,0.00,,,0.00,,2013-07-31 01:52:00,
2013-07-30 19:02:00,75.0,60.0,30.07,WSW,256,1.0,5.0,60,0.00,,,0.00,,2013-07-31 02:02:00,
2013-07-30 19:11:00,74.0,59.0,30.07,SSW,213,1.0,5.0,59,0.00,,,0.00,,2013-07-31 02:11:00,
2013-07-30 19:22:00,74.0,59.0,30.07,SSW,213,1.0,5.0,59,0.00,,,0.00,,2013-07-31 02:22:00,
2013-07-30 19:32:00,74.0,59.0,30.07,WNW,296,2.0,4.0,60,0.00,,,0.00,,2013-07-31 02:32:00,
2013-07-30 19:42:00,74.0,59.0,30.07,SW,221,1.0,2.0,60,0.00,,,0.00,,2013-07-31 02:42:00,
2013-07-30 19:52:00,74.0,60.0,30.06,SW,229,0.0,3.0,61,0.00,,,0.00,,2013-07-31 02:52:00,
2013-07-30 20:02:00,74.0,60.0,30.07,West,279,0.0,3.0,62,0.00,,,0.00,,2013-07-31 03:02:00,
2013-07-30 20:11:00,74.0,60.0,30.07,West,279,0.0,3.0,62,0.00,,,0.00,,2013-07-31 03:11:00,
2013-07-30 20:22:00,73.0,60.0,30.07,West,279,0.0,2.0,63,0.00,,,0.00,,2013-07-31 03:22:00,
2013-07-30 20:32:00,73.0,60.0,30.07,West,279,0.0,2.0,63,0.00,,,0.00,,2013-07-31 03:32:00,
2013-07-30 20:42:00,72.0,59.0,30.08,SSW,198,0.0,3.0,64,0.00,,,0.00,,2013-07-31 03:42:00,
2013-07-30 20:52:00,71.0,59.0,30.08,SSW,198,0.0,1.0,66,0.00,,,0.00,,2013-07-31 03:52:00,
2013-07-30 21:02:00,70.0,60.0,30.08,SSW,198,0.0,0.0,70,0.00,,,0.00,,2013-07-31 04:02:00,
2013-07-30 21:12:00,70.0,60.0,30.08,SSW,198,0.0,0.0,70,0.00,,,0.00,,2013-07-31 04:12:00,
2013-07-30 21:22:00,68.0,59.0,30.08,SSW,198,0.0,0.0,73,0.00,,,0.00,,2013-07-31 04:22:00,
2013-07-30 21:32:00,68.0,59.0,30.08,SSW,198,0.0,0.0,73,0.00,,,0.00,,2013-07-31 04:32:00,
2013-07-30 21:42:00,68.0,59.0,30.08,SSW,198,0.0,0.0,73,0.00,,,0.00,,2013-07-31 04:42:00,
2013-07-30 21:52:00,68.0,59.0,30.08,SSW,198,0.0,0.0,73,0.00,,,0.00,,2013-07-31 04:52:00,
2013-07-30 22:01:00,66.0,59.0,30.09,SSW,198,0.0,0.0,77,0.00,,,0.00,,2013-07-31 05:01:00,
2013-07-30 22:11:00,66.0,59.0,30.09,SSW,198,0.0,0.0,77,0.00,,,0.00,,2013-07-31 05:11:00,
2013-07-30 22:22:00,65.0,59.0,30.09,SSW,198,0.0,0.0,80,0.00,,,0.00,,2013-07-31 05:22:00,
2013-07-30 22:32:00,65.0,59.0,30.09,SSW,198,0.0,0.0,82,0.00,,,0.00,,2013-07-31 05:32:00,
2013-07-30 22:42:00,65.0,59.0,30.09,SSW,198,0.0,0.0,82,0.00,,,0.00,,2013-07-31 05:42:00,
2013-07-30 22:52:00,64.0,59.0,30.09,SSW,198,0.0,0.0,84,0.00,,,0.00,,2013-07-31 05:52:00,
2013-07-30 23:02:00,63.0,58.0,30.10,SSW,198,0.0,0.0,85,0.00,,,0.00,,2013-07-31 06:02:00,
2013-07-30 23:12:00,63.0,58.0,30.10,SSW,198,0.0,0.0,85,0.00,,,0.00,,2013-07-31 06:12:00,
2013-07-30 23:22:00,63.0,59.0,30.10,SSW,198,0.0,0.0,86,0.00,,,0.00,,2013-07-31 06:22:00,
2013-07-30 23:32:00,63.0,59.0,30.10,SSW,198,0.0,0.0,86,0.00,,,0.00,,2013-07-31 06:32:00,
2013-07-30 23:42:00,62.0,58.0,30.09,SSW,198,0.0,0.0,87,0.00,,,0.00,,2013-07-31 06:42:00,
2013-07-30 23:53:00,62.0,58.0,30.09,SSW,198,0.0,0.0,88,0.00,,,0.00,,2013-07-31 06:53:00,